Home > Weather > The Settlement > Past weeks

Flag for Christmas Island Weather for the Past 2 Weeks in The Settlement, Christmas Island

Now
79 °F

Passing clouds.


Feels Like: 81 °F
Forecast: 78 / 81 °F
Wind: 10 mph from Southeast

Location: Christmas Island Aerodrome

Current Time: Apr 29, 2016 at 7:15:39 PM

Latest Report: Apr 29, 2016 at 6:30 PM


Visibility: N/A

Pressure: 29.89 "Hg

Humidity: 74%

Dew Point: 70 °F

Location of The SettlementLocation

Historic Weather in The Settlement — Graph

°F

The Settlement Temperature Yesterday

Maximum temperature yesterday: 84 °F (at 12:00 PM)
Minimum temperature yesterday: 79 °F (at 4:30 AM)
Average temperature yesterday: 81 °F

High & Low Weather Summary for the Past Weeks

 TemperatureHumidityPressure
High84 °F (Apr 17, 11:00 AM)100% (Apr 14, 9:00 PM)29.98 "Hg (Apr 14, 9:00 PM)
Low73 °F (Apr 15, 9:00 AM)66% (Apr 20, 10:00 AM)29.83 "Hg (Apr 16, 3:00 PM)
Average80 °F84%29.90 "Hg
* Reported Apr 14 6:00 PM — Apr 29 6:00 PM, The Settlement, Weather by CustomWeather, © 2016

Note: Actual official high and low records may vary slightly from our data, if they occured in-between our weather recording intervals... More about our weather records

Advertising

The Settlement Weather History for the Previous 24 Hours

Scroll right to see more
 ConditionsComfort  
Time TempWeatherWind HumidityBarometerVisibility
6:00 PM
Fri, Apr 29
79 °FPassing clouds.9 mph79%29.89 "HgN/A
5:00 PM81 °FBroken clouds.9 mph79%29.86 "HgN/A
4:00 PM82 °FPartly sunny.8 mph74%29.86 "HgN/A
3:00 PM82 °FBroken clouds.10 mph74%29.86 "HgN/A
2:00 PM82 °FBroken clouds.10 mph74%29.86 "HgN/A
1:30 PM82 °FMostly cloudy.9 mph74%29.89 "HgN/A
1:00 PM81 °FMostly cloudy.8 mph79%29.89 "HgN/A
12:00 PM82 °FPartly sunny.8 mph74%29.92 "HgN/A
11:00 AM82 °FPartly sunny.8 mph70%29.95 "HgN/A
10:00 AM81 °FPartly sunny.9 mph74%29.95 "HgN/A
9:30 AM81 °FPartly sunny.10 mph74%29.95 "HgN/A
9:00 AM81 °FScattered clouds.12 mph74%29.95 "HgN/A
8:30 AM79 °FScattered clouds.12 mph74%29.95 "HgN/A
8:00 AM79 °FScattered clouds.13 mph74%29.92 "HgN/A
7:00 AM79 °FScattered clouds.13 mph74%29.92 "HgN/A
6:00 AM79 °FMostly cloudy.13 mph79%29.92 "HgN/A
5:00 AM79 °FOvercast.10 mph79%29.89 "HgN/A
4:00 AM79 °FMostly cloudy.10 mph79%29.89 "HgN/A
3:30 AM79 °FPassing clouds.12 mph79%29.89 "HgN/A
3:00 AM79 °FPassing clouds.13 mph79%29.89 "HgN/A
2:30 AM79 °FPassing clouds.14 mph79%29.89 "HgN/A
2:00 AM79 °FPassing clouds.13 mph74%29.89 "HgN/A
1:30 AM79 °FPassing clouds.13 mph74%29.89 "HgN/A
1:00 AM79 °FPassing clouds.12 mph70%29.89 "HgN/A
12:30 AM79 °FPassing clouds.14 mph74%29.92 "HgN/A
12:00 AM79 °FPartly cloudy.13 mph74%29.92 "HgN/A
11:30 PM
Thu, Apr 28
79 °FPassing clouds.13 mph74%29.92 "HgN/A
11:00 PM79 °FPassing clouds.14 mph74%29.92 "HgN/A
10:30 PM81 °FPassing clouds.13 mph70%29.95 "HgN/A
10:00 PM81 °FPassing clouds.14 mph70%29.95 "HgN/A
9:30 PM81 °FPartly cloudy.14 mph70%29.95 "HgN/A
9:00 PM81 °FPassing clouds.14 mph70%29.92 "HgN/A
8:30 PM81 °FPassing clouds.15 mph70%29.92 "HgN/A
8:00 PM81 °FPassing clouds.14 mph70%29.92 "HgN/A
7:00 PM81 °FPassing clouds.13 mph74%29.89 "HgN/A
Weather by CustomWeather, © 2016

See weather overviewHow to use our weather pages